ERINB Weather Reports


time (UTC)temp
F
wind
direction
speed
knots
gust
knots
rain 1hr
in
rain 24hr
in
rain mn
in
humidity
%
barometer
mb
20260505100844 52 266 0.9 5.2 0.00 0.00 0.00 1012.5
20260505100146 52 290 1.7 6.1 0.00 0.00 0.00 1012.4
20260505095856 52 264 1.7 7.0 0.00 0.00 0.00 1012.4
20260505095446 52 264 1.7 7.0 0.00 0.00 0.00 1012.4
20260505094854 52 266 0.9 5.2 0.00 0.00 0.00 1012.2
20260505094743 52 266 0.9 5.2 0.00 0.00 0.00 1012.2
20260505094043 52 255 1.7 7.0 0.00 0.00 0.00 1012.1
20260505093854 52 284 1.7 6.1 0.00 0.00 0.00 1012.1
20260505093343 52 274 1.7 7.0 0.00 0.00 0.00 1012.0
20260505092853 52 315 0.9 5.2 0.00 0.00 0.00 1012.1
20260505092644 52 315 0.9 5.2 0.00 0.00 0.00 1012.1
20260505091945 52 307 0.9 7.0 0.00 0.00 0.00 1012.1
20260505091854 52 293 0.9 3.5 0.00 0.00 0.00 1012.1
20260505091244 52 276 2.6 7.0 0.00 0.00 0.00 1012.1
20260505090853 52 257 1.7 6.1 0.00 0.00 0.00 1012.0
20260505090618 52 257 1.7 6.1 0.00 0.00 0.00 1012.0
20260505090543 52 257 1.7 6.1 0.00 0.00 0.00 1012.0
20260505085844 52 290 1.7 5.2 0.00 0.00 0.00 1012.1
20260505085143 52 280 2.6 6.1 0.00 0.00 0.00 1012.0
20260505084953 52 266 2.6 7.8 0.00 0.00 0.00 1012.1
20260505084854 52 266 2.6 7.8 0.00 0.00 0.00 1012.1
20260505084445 52 266 2.6 7.8 0.00 0.00 0.00 1012.1
20260505083853 52 285 0.0 3.5 0.00 0.00 0.00 1012.1
20260505083749 52 285 0.0 3.5 0.00 0.00 0.00 1012.1
20260505083043 52 291 1.7 7.0 0.00 0.00 0.00 1012.1
20260505082930 51 290 0.9 5.2 0.00 0.00 0.00 1012.1
20260505082855 51 290 0.9 5.2 0.00 0.00 0.00 1012.1
20260505082343 51 288 0.9 7.0 0.00 0.00 0.00 1012.0
20260505081853 51 270 0.0 2.6 0.00 0.00 0.00 1012.1
20260505081645 51 270 0.0 2.6 0.00 0.00 0.00 1012.1
20260505080945 51 297 0.9 3.5 0.00 0.00 0.00 1012.2
20260505080853 52 278 0.9 5.2 0.00 0.00 0.00 1012.2
20260505080245 52 257 0.0 2.6 0.00 0.00 0.00 1012.2
20260505075935 52 284 0.9 6.1 0.00 0.00 0.00 1012.2
20260505075853 52 284 0.9 6.1 0.00 0.00 0.00 1012.2
20260505075543 52 284 0.9 6.1 0.00 0.00 0.00 1012.2
20260505074843 52 250 0.9 3.5 0.00 0.00 0.00 1012.1
20260505074144 52 290 0.9 4.3 0.00 0.00 0.00 1012.2
20260505073856 52 283 0.9 3.5 0.00 0.00 0.00 1012.1
20260505073445 52 283 0.9 3.5 0.00 0.00 0.00 1012.1
20260505072944 52 283 0.0 5.2 0.00 0.00 0.00 1012.0
20260505072853 52 283 0.0 5.2 0.00 0.00 0.00 1012.0
20260505072744 52 283 0.0 5.2 0.00 0.00 0.00 1012.0
20260505072045 52 273 0.0 4.3 0.00 0.00 0.00 1012.0
20260505071854 52 293 0.0 2.6 0.00 0.00 0.00 1011.9
20260505071344 52 0 0.0 0.0 0.00 0.00 0.00 1011.8
20260505070853 52 0 0.0 0.0 0.00 0.00 0.00 1011.8
20260505070644 52 0 0.0 0.0 0.00 0.00 0.00 1011.8
20260505070541 53 283 0.9 6.1 0.00 0.00 0.00 1011.7
20260505065943 53 283 0.9 6.1 0.00 0.00 0.00 1011.7
20260505065853 53 255 0.0 1.7 0.00 0.00 0.00 1011.7
20260505065245 53 0 0.0 0.0 0.00 0.00 0.00 1011.6
20260505065043 53 288 0.9 4.3 0.00 0.00 0.00 1011.6
20260505064936 53 288 0.9 4.3 0.00 0.00 0.00 1011.6
20260505064854 53 288 0.9 4.3 0.00 0.00 0.00 1011.6
20260505064615 53 288 0.9 4.3 0.00 0.00 0.00 1011.6
20260505064544 53 288 0.9 4.3 0.00 0.00 0.00 1011.6
20260505063843 53 283 0.0 2.6 0.00 0.00 0.00 1011.6
20260505063143 53 297 0.0 4.3 0.00 0.00 0.00 1011.6
20260505062853 53 0 0.0 0.0 0.00 0.00 0.00 1011.6
20260505062443 53 0 0.0 0.0 0.00 0.00 0.00 1011.6
20260505061854 54 291 0.0 2.6 0.00 0.00 0.00 1011.5
20260505061743 54 291 0.0 2.6 0.00 0.00 0.00 1011.5
20260505061043 54 280 0.9 5.2 0.00 0.00 0.00 1011.4
20260505060853 54 276 0.9 2.6 0.00 0.00 0.00 1011.3
20260505060343 54 293 0.9 4.3 0.00 0.00 0.00 1011.4
20260505055853 54 266 0.0 2.6 0.00 0.00 0.00 1011.4
20260505055644 54 266 0.0 2.6 0.00 0.00 0.00 1011.4
20260505054943 54 297 0.9 6.1 0.00 0.00 0.00 1011.3
20260505054853 55 0 0.0 0.0 0.00 0.00 0.00 1011.4
20260505054316 55 269 0.9 6.1 0.00 0.00 0.00 1011.4
20260505054243 55 269 0.9 6.1 0.00 0.00 0.00 1011.4
20260505053853 55 285 1.7 5.2 0.00 0.00 0.00 1011.3
20260505053544 55 285 1.7 5.2 0.00 0.00 0.00 1011.3
20260505052843 55 290 0.0 2.6 0.00 0.00 0.00 1011.3
20260505052144 56 266 0.9 2.6 0.00 0.00 0.00 1011.4
20260505051853 56 284 0.9 3.5 0.00 0.00 0.00 1011.4
20260505051444 56 284 0.9 3.5 0.00 0.00 0.00 1011.4
20260505050853 56 246 0.0 1.7 0.00 0.00 0.00 1011.3
20260505050744 56 246 0.0 1.7 0.00 0.00 0.00 1011.3
20260505041143 60 215 0.0 3.5 0.00 0.00 0.00 1011.2
20260505040855 60 211 1.7 6.1 0.00 0.00 0.00 1011.2
20260505040443 60 211 1.7 6.1 0.00 0.00 0.00 1011.2
20260505035853 61 214 0.0 2.6 0.00 0.00 0.00 1011.1
20260505035744 61 214 0.0 2.6 0.00 0.00 0.00 1011.1
20260505035043 62 259 0.9 3.5 0.00 0.00 0.00 1011.1
20260505034853 62 297 0.9 6.1 0.00 0.00 0.00 1010.9
20260505034344 62 263 2.6 7.0 0.00 0.00 0.00 1011.2
20260505033853 63 294 0.9 3.5 0.00 0.00 0.00 1011.1
20260505033643 63 294 0.9 3.5 0.00 0.00 0.00 1011.1
20260505032943 63 270 1.7 5.2 0.00 0.00 0.00 1010.9
20260505032853 64 291 1.7 6.1 0.00 0.00 0.00 1011.1
20260505032243 64 274 2.6 7.0 0.00 0.00 0.00 1010.9
20260505031854 64 297 1.7 6.1 0.00 0.00 0.00 1010.9
20260505031543 64 297 1.7 6.1 0.00 0.00 0.00 1010.9
20260505030844 65 316 0.9 3.5 0.00 0.00 0.00 1010.9
20260505030146 66 285 1.7 3.5 0.00 0.00 0.00 1010.9
20260505025854 66 271 0.0 2.6 0.00 0.00 0.00 1010.8
20260505025443 66 271 0.0 2.6 0.00 0.00 0.00 1010.8
20260505024853 67 270 0.9 4.3 0.00 0.00 0.00 1010.7
20260505024743 67 270 0.9 4.3 0.00 0.00 0.00 1010.7
20260505024043 68 283 1.7 5.2 0.00 0.00 0.00 1010.7
20260505023855 68 260 0.9 4.3 0.00 0.00 0.00 1010.7
20260505023344 69 277 1.7 7.0 0.00 0.00 0.00 1010.7
20260505022853 69 322 0.9 4.3 0.00 0.00 0.00 1010.8
20260505022644 69 322 0.9 4.3 0.00 0.00 0.00 1010.8
20260505021944 70 235 0.0 3.5 0.00 0.00 0.00 1010.8
20260505021853 71 250 0.0 2.6 0.00 0.00 0.00 1010.8
20260505021243 71 281 0.9 6.1 0.00 0.00 0.00 1010.7
20260505020853 71 214 0.0 0.9 0.00 0.00 0.00 1010.8
20260505020545 71 214 0.0 0.9 0.00 0.00 0.00 1010.8
20260505015843 72 269 0.9 4.3 0.00 0.00 0.00 1010.8
20260505015145 72 207 0.9 3.5 0.00 0.00 0.00 1010.8
20260505014853 73 180 0.0 2.6 0.00 0.00 0.00 1010.8
20260505014444 73 180 0.0 2.6 0.00 0.00 0.00 1010.8
20260505013853 74 242 0.9 3.5 0.00 0.00 0.00 1011.1
20260505013744 74 242 0.9 3.5 0.00 0.00 0.00 1011.1
20260505013044 74 235 0.9 4.3 0.00 0.00 0.00 1011.1
20260505012853 74 267 0.9 2.6 0.00 0.00 0.00 1010.9
20260505012343 75 262 0.0 0.9 0.00 0.00 0.00 1011.1
20260505011852 75 190 0.9 3.5 0.00 0.00 0.00 1011.2
20260505011644 75 190 0.9 3.5 0.00 0.00 0.00 1011.2
20260505010943 75 283 0.9 3.5 0.00 0.00 0.00 1011.3
20260505010852 76 212 0.0 3.5 0.00 0.00 0.00 1011.3
20260505010243 76 246 0.9 4.3 0.00 0.00 0.00 1011.4
20260505005853 76 322 0.9 6.1 0.00 0.00 0.00 1011.5
20260505005542 76 322 0.9 6.1 0.00 0.00 0.00 1011.5
20260505004843 77 249 0.9 3.5 0.00 0.00 0.00 1011.4
20260505004143 77 231 1.7 4.3 0.00 0.00 0.00 1011.5
20260505003853 78 160 0.9 4.3 0.00 0.00 0.00 1011.4
20260505003443 78 160 0.9 4.3 0.00 0.00 0.00 1011.4
20260505002853 78 270 2.6 7.0 0.00 0.00 0.00 1011.5
20260505002742 78 270 2.6 7.0 0.00 0.00 0.00 1011.5
20260505002043 78 288 1.7 5.2 0.00 0.00 0.00 1011.4
20260505001853 78 277 2.6 5.2 0.00 0.00 0.00 1011.4
20260505001344 78 269 1.7 5.2 0.00 0.00 0.00 1011.4
20260505000843 78 214 1.7 5.2 0.00 0.00 0.00 1011.5
20260505000145 79 293 0.9 4.3 0.00 0.00 0.00 1011.6
20260504235852 80 257 0.9 3.5 0.00 0.00 0.00 1011.6
20260504235443 80 257 0.9 3.5 0.00 0.00 0.00 1011.6
20260504234853 80 239 1.7 6.1 0.00 0.00 0.00 1011.6
20260504234743 80 239 1.7 6.1 0.00 0.00 0.00 1011.6
20260504234042 80 239 0.9 6.1 0.00 0.00 0.00 1011.5
20260504233852 80 183 2.6 6.1 0.00 0.00 0.00 1011.6
20260504233343 81 259 0.9 7.8 0.00 0.00 0.00 1011.4
20260504232853 81 260 0.9 3.5 0.00 0.00 0.00 1011.5
20260504232647 81 260 0.9 3.5 0.00 0.00 0.00 1011.5
20260504231943 80 166 1.7 6.1 0.00 0.00 0.00 1011.5
20260504231852 80 240 0.9 6.1 0.00 0.00 0.00 1011.5
20260504231243 80 228 0.9 5.2 0.00 0.00 0.00 1011.6
20260504230855 79 294 3.5 9.6 0.00 0.00 0.00 1011.6
20260504230542 79 294 3.5 9.6 0.00 0.00 0.00 1011.6
20260504225842 79 226 1.7 7.0 0.00 0.00 0.00 1011.6
20260504225142 80 200 0.9 7.0 0.00 0.00 0.00 1011.7
20260504224852 79 252 0.9 4.3 0.00 0.00 0.00 1011.8
20260504224442 79 252 0.9 4.3 0.00 0.00 0.00 1011.8
20260504223854 79 277 1.7 7.0 0.00 0.00 0.00 1011.8
20260504223744 79 277 1.7 7.0 0.00 0.00 0.00 1011.8
20260504223044 79 290 1.7 7.0 0.00 0.00 0.00 1011.8
20260504222853 80 219 1.7 6.1 0.00 0.00 0.00 1011.9
20260504222344 80 281 2.6 7.0 0.00 0.00 0.00 1011.9
20260504221852 79 231 0.0 1.7 0.00 0.00 0.00 1011.8
20260504221643 79 231 0.0 1.7 0.00 0.00 0.00 1011.8
20260504220943 79 233 0.9 5.2 0.00 0.00 0.00 1011.9
20260504220852 79 276 1.7 4.3 0.00 0.00 0.00 1011.8
20260504220243 79 267 0.9 3.5 0.00 0.00 0.00 1011.9
20260504215853 79 201 0.9 5.2 0.00 0.00 0.00 1011.8
20260504215543 79 201 0.9 5.2 0.00 0.00 0.00 1011.8
20260504214842 78 218 2.6 5.2 0.00 0.00 0.00 1012.0
20260504214143 79 278 1.7 7.0 0.00 0.00 0.00 1012.0
20260504213852 78 312 1.7 6.1 0.00 0.00 0.00 1012.0
20260504213442 78 312 1.7 6.1 0.00 0.00 0.00 1012.0
20260504212854 78 212 2.6 7.0 0.00 0.00 0.00 1012.0
20260504212743 78 212 2.6 7.0 0.00 0.00 0.00 1012.0
20260504212042 78 228 1.7 7.0 0.00 0.00 0.00 1012.0
20260504211853 78 217 2.6 7.8 0.00 0.00 0.00 1011.9
20260504211342 78 207 1.7 4.3 0.00 0.00 0.00 1011.8
20260504210853 78 332 0.9 5.2 0.00 0.00 0.00 1011.9
20260504210643 78 332 0.9 5.2 0.00 0.00 0.00 1011.9
20260504205942 77 271 3.5 9.6 0.00 0.00 0.00 1011.8
20260504205855 78 205 2.6 7.8 0.00 0.00 0.00 1011.9
20260504205243 78 293 2.6 7.0 0.00 0.00 0.00 1012.0
20260504204853 78 269 2.6 7.0 0.00 0.00 0.00 1011.8
20260504204618 78 269 2.6 7.0 0.00 0.00 0.00 1011.8
20260504204542 78 269 2.6 7.0 0.00 0.00 0.00 1011.8
20260504203842 76 280 2.6 7.8 0.00 0.00 0.00 1011.7
20260504203142 76 203 1.7 7.8 0.00 0.00 0.00 1011.8
20260504202852 77 280 1.7 7.0 0.00 0.00 0.00 1011.7
20260504202442 77 280 1.7 7.0 0.00 0.00 0.00 1011.7
20260504201853 77 316 1.7 6.1 0.00 0.00 0.00 1011.7
20260504201742 77 316 1.7 6.1 0.00 0.00 0.00 1011.7
20260504201042 75 267 1.7 4.3 0.00 0.00 0.00 1011.6
20260504200852 75 264 1.7 6.1 0.00 0.00 0.00 1011.7
20260504200342 75 215 1.7 6.1 0.00 0.00 0.00 1011.7
20260504195852 75 255 2.6 8.7 0.00 0.00 0.00 1011.6
20260504195642 75 255 2.6 8.7 0.00 0.00 0.00 1011.6
20260504194942 76 214 1.7 7.0 0.00 0.00 0.00 1011.6
20260504194852 77 273 2.6 8.7 0.00 0.00 0.00 1011.5
20260504194242 76 269 1.7 5.2 0.00 0.00 0.00 1011.6
20260504193852 76 290 2.6 7.0 0.00 0.00 0.00 1011.6
20260504193542 76 290 2.6 7.0 0.00 0.00 0.00 1011.6
20260504192842 76 253 1.7 4.3 0.00 0.00 0.00 1011.7
20260504192143 76 242 1.7 6.1 0.00 0.00 0.00 1011.6
20260504191852 75 274 1.7 5.2 0.00 0.00 0.00 1011.6
20260504191442 75 274 1.7 5.2 0.00 0.00 0.00 1011.6
20260504190852 74 228 1.7 5.2 0.00 0.00 0.00 1011.8
20260504190742 74 228 1.7 5.2 0.00 0.00 0.00 1011.8
20260504190043 74 195 1.7 6.1 0.00 0.00 0.00 1011.5
20260504185852 74 276 0.9 7.0 0.00 0.00 0.00 1011.6
20260504185342 73 257 1.7 4.3 0.00 0.00 0.00 1011.6
20260504184856 73 260 1.7 6.1 0.00 0.00 0.00 1011.5
20260504184642 73 260 1.7 6.1 0.00 0.00 0.00 1011.5
20260504183942 72 287 0.9 4.3 0.00 0.00 0.00 1011.5
20260504183852 71 270 0.9 3.5 0.00 0.00 0.00 1011.5
20260504183242 71 283 0.9 4.3 0.00 0.00 0.00 1011.5
20260504182852 71 284 0.9 3.5 0.00 0.00 0.00 1011.4
20260504182543 71 284 0.9 3.5 0.00 0.00 0.00 1011.4
20260504181843 70 291 1.7 5.2 0.00 0.00 0.00 1011.5
20260504181141 70 197 0.0 1.7 0.00 0.00 0.00 1011.5
20260504180851 70 215 0.9 4.3 0.00 0.00 0.00 1011.5
20260504180442 70 215 0.9 4.3 0.00 0.00 0.00 1011.5
20260504175852 69 240 0.9 2.6 0.00 0.00 0.00 1011.4
20260504175742 69 240 0.9 2.6 0.00 0.00 0.00 1011.4
20260504175042 68 294 1.7 5.2 0.00 0.00 0.00 1011.6
20260504174852 68 276 1.7 6.1 0.00 0.00 0.00 1011.4
20260504174342 67 266 0.9 2.6 0.00 0.00 0.00 1011.5
20260504173852 66 280 0.9 3.5 0.00 0.00 0.00 1011.5
20260504173641 66 280 0.9 3.5 0.00 0.00 0.00 1011.5
20260504172941 66 218 1.7 4.3 0.00 0.00 0.00 1011.4
20260504172852 65 238 0.9 2.6 0.00 0.00 0.00 1011.3
20260504172324 65 198 0.9 2.6 0.00 0.00 0.00 1011.4
20260504172243 65 198 0.9 2.6 0.00 0.00 0.00 1011.4
20260504171853 64 229 0.9 4.3 0.00 0.00 0.00 1011.4
20260504171545 64 229 0.9 4.3 0.00 0.00 0.00 1011.4
20260504170843 63 0 0.0 0.0 0.00 0.00 0.00 1011.3
20260504170141 63 205 0.0 2.6 0.00 0.00 0.00 1011.3
20260504150941 64 0 0.0 0.0 0.00 0.00 0.00 1010.3
20260504150851 63 231 0.0 0.9 0.00 0.00 0.00 1010.1
20260504150241 63 0 0.0 0.0 0.00 0.00 0.00 1009.9
20260504140853 60 0 0.0 0.0 0.00 0.00 0.00 1010.0
20260504140641 60 0 0.0 0.0 0.00 0.00 0.00 1010.0
20260504130341 57 0 0.0 0.0 0.00 0.00 0.00 1009.7
20260504110441 59 0 0.0 0.0 0.00 0.00 0.00 1009.8